Time,TemperatureF,DewpointF,PressureIn,WindDirection,WindDirectionDegrees,WindSpeedMPH,WindSpeedGustMPH,Humidity,HourlyPrecipIn,Conditions,Clouds,dailyrainin,SoftwareType,DateUTC
2013-01-14 00:01:00,-9.0,-14.0,-100.00,West,267,16.0,17.0,78,0.00,,,-99.99,,2013-01-14 07:01:00,
2013-01-14 00:11:00,-9.0,-14.0,-100.00,West,264,16.0,17.0,77,0.00,,,-99.99,,2013-01-14 07:11:00,
2013-01-14 00:22:00,-8.0,-13.0,-100.00,West,268,16.0,19.0,78,0.00,,,-99.99,,2013-01-14 07:22:00,
2013-01-14 00:32:00,-9.0,-13.0,-100.00,West,265,14.0,16.0,79,0.00,,,-99.99,,2013-01-14 07:32:00,
2013-01-14 00:42:00,-8.0,-13.0,-100.00,West,267,17.0,19.0,79,0.00,,,-99.99,,2013-01-14 07:42:00,
2013-01-14 00:52:00,-9.0,-14.0,-100.00,West,260,13.0,16.0,78,0.00,,,-99.99,,2013-01-14 07:52:00,
2013-01-14 01:02:00,-9.0,-14.0,-100.00,WSW,258,14.0,15.0,78,0.00,,,-99.99,,2013-01-14 08:02:00,
2013-01-14 01:11:00,-10.0,-15.0,-100.00,West,264,13.0,16.0,77,0.00,,,-99.99,,2013-01-14 08:11:00,
2013-01-14 01:22:00,-10.0,-15.0,-100.00,West,261,9.0,11.0,77,0.00,,,-99.99,,2013-01-14 08:22:00,
2013-01-14 01:32:00,-10.0,-15.0,-100.00,West,271,9.0,11.0,79,0.00,,,-99.99,,2013-01-14 08:32:00,
2013-01-14 01:42:00,-11.0,-16.0,-100.00,WNW,285,9.0,10.0,79,0.00,,,-99.99,,2013-01-14 08:42:00,
2013-01-14 01:52:00,-10.0,-15.0,-100.00,NW,305,7.0,9.0,76,0.00,,,-99.99,,2013-01-14 08:52:00,
2013-01-14 02:02:00,-10.0,-14.0,-100.00,NW,322,4.0,6.0,79,0.00,,,-99.99,,2013-01-14 09:02:00,
2013-01-14 02:11:00,-11.0,-17.0,-100.00,NNW,337,4.0,6.0,74,0.00,,,-99.99,,2013-01-14 09:11:00,
2013-01-14 02:22:00,-11.0,-16.0,-100.00,NW,325,4.0,7.0,80,0.00,,,-99.99,,2013-01-14 09:22:00,
2013-01-14 02:33:00,-11.0,-15.0,-100.00,NNW,340,4.0,6.0,81,0.00,,,-99.99,,2013-01-14 09:33:00,
2013-01-14 02:42:00,-13.0,-18.0,-100.00,NNW,344,4.0,4.0,78,0.00,,,-99.99,,2013-01-14 09:42:00,
2013-01-14 02:52:00,-12.0,-15.0,-100.00,NW,320,6.0,6.0,83,0.00,,,-99.99,,2013-01-14 09:52:00,
2013-01-14 03:02:00,-10.0,-14.0,-100.00,NNW,337,5.0,6.0,82,0.00,,,-99.99,,2013-01-14 10:02:00,
2013-01-14 03:11:00,-10.0,-15.0,-100.00,NW,322,6.0,6.0,79,0.00,,,-99.99,,2013-01-14 10:11:00,
2013-01-14 03:22:00,-10.0,-15.0,-100.00,NNW,333,4.0,6.0,79,0.00,,,-99.99,,2013-01-14 10:22:00,
2013-01-14 03:32:00,-11.0,-16.0,-100.00,NW,326,4.0,6.0,78,0.00,,,-99.99,,2013-01-14 10:32:00,
2013-01-14 03:42:00,-18.0,-24.0,-100.00,SW,223,1.0,2.0,76,0.00,,,-99.99,,2013-01-14 10:42:00,
2013-01-14 03:52:00,-19.0,-24.0,-100.00,SSW,203,1.0,1.0,80,0.00,,,-99.99,,2013-01-14 10:52:00,
2013-01-14 04:01:00,-18.0,-22.0,-100.00,NNW,333,1.0,2.0,84,0.00,,,-99.99,,2013-01-14 11:01:00,
2013-01-14 04:11:00,-19.0,-23.0,-100.00,North,6,1.0,2.0,82,0.00,,,-99.99,,2013-01-14 11:11:00,
2013-01-14 04:22:00,-15.0,-19.0,-100.00,NNW,328,2.0,2.0,80,0.00,,,-99.99,,2013-01-14 11:22:00,
2013-01-14 04:32:00,-19.0,-24.0,-100.00,NNW,328,1.0,3.0,77,0.00,,,-99.99,,2013-01-14 11:32:00,
2013-01-14 04:42:00,-17.0,-21.0,-100.00,NNW,336,1.0,1.0,83,0.00,,,-99.99,,2013-01-14 11:42:00,
2013-01-14 04:52:00,-17.0,-21.0,-100.00,NNW,329,1.0,2.0,81,0.00,,,-99.99,,2013-01-14 11:52:00,
2013-01-14 05:02:00,-17.0,-20.0,-100.00,NNW,328,2.0,3.0,82,0.00,,,-99.99,,2013-01-14 12:02:00,
2013-01-14 05:11:00,-17.0,-21.0,-100.00,NNW,339,2.0,2.0,81,0.00,,,-99.99,,2013-01-14 12:11:00,
2013-01-14 05:22:00,-15.0,-20.0,-100.00,NNW,328,3.0,4.0,78,0.00,,,-99.99,,2013-01-14 12:22:00,
2013-01-14 05:33:00,-19.0,-24.0,-100.00,SW,226,0.0,0.0,78,0.00,,,-99.99,,2013-01-14 12:33:00,
2013-01-14 05:42:00,-19.0,-23.0,-100.00,SW,226,0.0,0.0,80,0.00,,,-99.99,,2013-01-14 12:42:00,
2013-01-14 05:52:00,-16.0,-20.0,-100.00,SSE,165,0.0,0.0,81,0.00,,,-99.99,,2013-01-14 12:52:00,
2013-01-14 06:02:00,-14.0,-17.0,-100.00,West,271,1.0,2.0,85,0.00,,,-99.99,,2013-01-14 13:02:00,
2013-01-14 06:11:00,-12.0,-15.0,-100.00,West,278,4.0,6.0,85,0.00,,,-99.99,,2013-01-14 13:11:00,
2013-01-14 06:22:00,-15.0,-20.0,-100.00,WSW,254,2.0,4.0,77,0.00,,,-99.99,,2013-01-14 13:22:00,
2013-01-14 06:33:00,-11.0,-15.0,-100.00,WSW,253,7.0,8.0,83,0.00,,,-99.99,,2013-01-14 13:33:00,
2013-01-14 06:42:00,-11.0,-16.0,-100.00,WSW,254,7.0,7.0,80,0.00,,,-99.99,,2013-01-14 13:42:00,
2013-01-14 06:52:00,-12.0,-16.0,-100.00,WSW,250,7.0,7.0,80,0.00,,,-99.99,,2013-01-14 13:52:00,
2013-01-14 07:02:00,-13.0,-17.0,-100.00,WSW,243,7.0,7.0,81,0.00,,,-99.99,,2013-01-14 14:02:00,
2013-01-14 07:12:00,-12.0,-17.0,-100.00,WSW,256,6.0,7.0,81,0.00,,,-99.99,,2013-01-14 14:12:00,
2013-01-14 07:22:00,-15.0,-21.0,-100.00,WNW,291,3.0,6.0,72,0.00,,,-99.99,,2013-01-14 14:22:00,
2013-01-14 07:32:00,-15.0,-18.0,-100.00,WNW,289,3.0,4.0,83,0.00,,,-99.99,,2013-01-14 14:32:00,
2013-01-14 07:42:00,-14.0,-18.0,-100.00,North,354,0.0,0.0,84,0.00,,,-99.99,,2013-01-14 14:42:00,
2013-01-14 07:52:00,-13.0,-16.0,-100.00,WNW,291,1.0,2.0,87,0.00,,,-99.99,,2013-01-14 14:52:00,
2013-01-14 08:02:00,-16.0,-20.0,-100.00,NNW,336,2.0,3.0,78,0.00,,,-99.99,,2013-01-14 15:02:00,
2013-01-14 08:12:00,-16.0,-20.0,-100.00,NW,311,2.0,3.0,83,0.00,,,-99.99,,2013-01-14 15:12:00,
2013-01-14 08:22:00,-15.0,-18.0,-100.00,WNW,302,2.0,2.0,84,0.00,,,-99.99,,2013-01-14 15:22:00,
2013-01-14 08:33:00,-17.0,-21.0,-100.00,WNW,292,2.0,2.0,81,0.00,,,-99.99,,2013-01-14 15:33:00,
2013-01-14 08:42:00,-16.0,-20.0,-100.00,WNW,296,1.0,1.0,81,0.00,,,-99.99,,2013-01-14 15:42:00,
2013-01-14 08:52:00,-15.0,-19.0,-100.00,WNW,301,0.0,1.0,81,0.00,,,-99.99,,2013-01-14 15:52:00,
2013-01-14 09:02:00,-16.0,-21.0,-100.00,WNW,301,0.0,1.0,78,0.00,,,-99.99,,2013-01-14 16:02:00,
2013-01-14 09:11:00,-15.0,-20.0,-100.00,NW,326,1.0,2.0,80,0.00,,,-99.99,,2013-01-14 16:11:00,
2013-01-14 09:22:00,-12.0,-16.0,-100.00,NNW,336,2.0,3.0,81,0.00,,,-99.99,,2013-01-14 16:22:00,
2013-01-14 09:33:00,-10.0,-15.0,-100.00,NNE,25,1.0,2.0,78,0.00,,,-99.99,,2013-01-14 16:33:00,
2013-01-14 09:42:00,-6.0,-10.0,-100.00,North,1,0.0,1.0,82,0.00,,,-99.99,,2013-01-14 16:42:00,
2013-01-14 09:52:00,-4.0,-10.0,-100.00,NNW,335,0.0,0.0,77,0.00,,,-99.99,,2013-01-14 16:52:00,
2013-01-14 10:02:00,-3.0,-10.0,-100.00,NW,320,0.0,1.0,72,0.00,,,-99.99,,2013-01-14 17:02:00,
2013-01-14 10:11:00,-4.0,-11.0,-100.00,NW,319,1.0,2.0,72,0.00,,,-99.99,,2013-01-14 17:11:00,
2013-01-14 10:22:00,-4.0,-11.0,-100.00,WNW,295,2.0,2.0,72,0.00,,,-99.99,,2013-01-14 17:22:00,
2013-01-14 10:33:00,-3.0,-11.0,-100.00,West,275,1.0,2.0,69,0.00,,,-99.99,,2013-01-14 17:33:00,
2013-01-14 10:42:00,-2.0,-10.0,-100.00,SSW,212,1.0,1.0,67,0.00,,,-99.99,,2013-01-14 17:42:00,
2013-01-14 10:53:00,-6.0,-14.0,-100.00,WSW,256,4.0,4.0,69,0.00,,,-99.99,,2013-01-14 17:53:00,
2013-01-14 11:02:00,-8.0,-14.0,-100.00,WSW,254,7.0,8.0,76,0.00,,,-99.99,,2013-01-14 18:02:00,
2013-01-14 11:12:00,-8.0,-13.0,-100.00,WSW,250,7.0,7.0,76,0.00,,,-99.99,,2013-01-14 18:12:00,
2013-01-14 11:22:00,-7.0,-13.0,-100.00,WSW,254,7.0,7.0,74,0.00,,,-99.99,,2013-01-14 18:22:00,
2013-01-14 11:33:00,-8.0,-14.0,-100.00,WSW,251,8.0,9.0,75,0.00,,,-99.99,,2013-01-14 18:33:00,
2013-01-14 11:42:00,-8.0,-13.0,-100.00,WSW,250,9.0,10.0,77,0.00,,,-99.99,,2013-01-14 18:42:00,
2013-01-14 11:52:00,-7.0,-13.0,-100.00,WSW,247,9.0,11.0,75,0.00,,,-99.99,,2013-01-14 18:52:00,
2013-01-14 12:02:00,-8.0,-14.0,-100.00,WSW,246,12.0,13.0,76,0.00,,,-99.99,,2013-01-14 19:02:00,
2013-01-14 12:12:00,-9.0,-14.0,-100.00,WSW,243,12.0,13.0,77,0.00,,,-99.99,,2013-01-14 19:12:00,
2013-01-14 12:22:00,-8.0,-13.0,-100.00,WSW,253,9.0,10.0,77,0.00,,,-99.99,,2013-01-14 19:22:00,
2013-01-14 12:32:00,-8.0,-14.0,-100.00,WSW,246,13.0,14.0,77,0.00,,,-99.99,,2013-01-14 19:32:00,
2013-01-14 12:42:00,-8.0,-14.0,-100.00,WSW,243,13.0,14.0,75,0.00,,,-99.99,,2013-01-14 19:42:00,
2013-01-14 12:52:00,-9.0,-14.0,-100.00,WSW,240,16.0,17.0,78,0.00,,,-99.99,,2013-01-14 19:52:00,
2013-01-14 13:03:00,-10.0,-14.0,-100.00,WSW,241,17.0,19.0,80,0.00,,,-99.99,,2013-01-14 20:03:00,
2013-01-14 13:12:00,-10.0,-15.0,-100.00,WSW,246,17.0,19.0,79,0.00,,,-99.99,,2013-01-14 20:12:00,
2013-01-14 13:22:00,-9.0,-14.0,-100.00,WSW,243,17.0,19.0,79,0.00,,,-99.99,,2013-01-14 20:22:00,
2013-01-14 13:33:00,-8.0,-13.0,-100.00,WSW,243,17.0,19.0,78,0.00,,,-99.99,,2013-01-14 20:33:00,
2013-01-14 13:42:00,-9.0,-14.0,-100.00,WSW,239,18.0,21.0,78,0.00,,,-99.99,,2013-01-14 20:42:00,
2013-01-14 13:52:00,-8.0,-14.0,-100.00,WSW,241,17.0,20.0,77,0.00,,,-99.99,,2013-01-14 20:52:00,
2013-01-14 14:02:00,-8.0,-14.0,-100.00,WSW,243,18.0,24.0,74,0.00,,,-99.99,,2013-01-14 21:02:00,
2013-01-14 14:12:00,-8.0,-14.0,-100.00,WSW,240,22.0,24.0,75,0.00,,,-99.99,,2013-01-14 21:12:00,
2013-01-14 14:22:00,-8.0,-14.0,-100.00,SW,236,22.0,24.0,76,0.00,,,-99.99,,2013-01-14 21:22:00,
2013-01-14 14:32:00,-8.0,-14.0,-100.00,WSW,241,19.0,21.0,76,0.00,,,-99.99,,2013-01-14 21:32:00,
2013-01-14 14:42:00,-9.0,-14.0,-100.00,SW,234,22.0,25.0,78,0.00,,,-99.99,,2013-01-14 21:42:00,
2013-01-14 14:53:00,-10.0,-14.0,-100.00,WSW,239,22.0,24.0,78,0.00,,,-99.99,,2013-01-14 21:53:00,
2013-01-14 15:02:00,-10.0,-15.0,-100.00,SW,233,22.0,26.0,79,0.00,,,-99.99,,2013-01-14 22:02:00,
2013-01-14 15:11:00,-10.0,-15.0,-100.00,WSW,237,21.0,24.0,79,0.00,,,-99.99,,2013-01-14 22:11:00,
2013-01-14 15:22:00,-9.0,-14.0,-100.00,WSW,237,22.0,24.0,77,0.00,,,-99.99,,2013-01-14 22:22:00,
2013-01-14 15:32:00,-10.0,-15.0,-100.00,SW,236,23.0,26.0,78,0.00,,,-99.99,,2013-01-14 22:32:00,
2013-01-14 15:42:00,-9.0,-14.0,-100.00,WSW,241,22.0,25.0,78,0.00,,,-99.99,,2013-01-14 22:42:00,
2013-01-14 15:52:00,-9.0,-14.0,-100.00,WSW,241,21.0,24.0,77,0.00,,,-99.99,,2013-01-14 22:52:00,
2013-01-14 16:02:00,-9.0,-14.0,-100.00,WSW,246,23.0,26.0,77,0.00,,,-99.99,,2013-01-14 23:02:00,
2013-01-14 16:11:00,-9.0,-14.0,-100.00,WSW,247,24.0,27.0,77,0.00,,,-99.99,,2013-01-14 23:11:00,
2013-01-14 16:22:00,-10.0,-15.0,-100.00,WSW,251,22.0,24.0,77,0.00,,,-99.99,,2013-01-14 23:22:00,
2013-01-14 16:32:00,-10.0,-15.0,-100.00,WSW,251,24.0,27.0,76,0.00,,,-99.99,,2013-01-14 23:32:00,
2013-01-14 16:42:00,-10.0,-15.0,-100.00,WSW,246,26.0,28.0,77,0.00,,,-99.99,,2013-01-14 23:42:00,
2013-01-14 16:52:00,-9.0,-15.0,-100.00,WSW,251,24.0,27.0,76,0.00,,,-99.99,,2013-01-14 23:52:00,
2013-01-14 17:02:00,-9.0,-15.0,-100.00,WSW,250,23.0,27.0,75,0.00,,,-99.99,,2013-01-15 00:02:00,
2013-01-14 17:11:00,-9.0,-15.0,-100.00,WSW,251,24.0,27.0,75,0.00,,,-99.99,,2013-01-15 00:11:00,
2013-01-14 17:22:00,-9.0,-15.0,-100.00,WSW,257,23.0,27.0,76,0.00,,,-99.99,,2013-01-15 00:22:00,
2013-01-14 17:32:00,-9.0,-15.0,-100.00,WSW,251,23.0,26.0,75,0.00,,,-99.99,,2013-01-15 00:32:00,
2013-01-14 17:42:00,-9.0,-15.0,-100.00,WSW,247,24.0,28.0,75,0.00,,,-99.99,,2013-01-15 00:42:00,
2013-01-14 17:52:00,-9.0,-15.0,-100.00,WSW,246,25.0,29.0,76,0.00,,,-99.99,,2013-01-15 00:52:00,
2013-01-14 18:02:00,-9.0,-15.0,-100.00,WSW,247,26.0,29.0,76,0.00,,,-99.99,,2013-01-15 01:02:00,
2013-01-14 18:12:00,-9.0,-15.0,-100.00,WSW,246,24.0,26.0,76,0.00,,,-99.99,,2013-01-15 01:12:00,
2013-01-14 18:22:00,-9.0,-15.0,-100.00,WSW,244,22.0,26.0,76,0.00,,,-99.99,,2013-01-15 01:22:00,
2013-01-14 18:32:00,-9.0,-14.0,-100.00,WSW,246,24.0,28.0,75,0.00,,,-99.99,,2013-01-15 01:32:00,
2013-01-14 18:42:00,-9.0,-14.0,-100.00,WSW,247,24.0,28.0,75,0.00,,,-99.99,,2013-01-15 01:42:00,
2013-01-14 18:52:00,-8.0,-14.0,-100.00,WSW,246,22.0,25.0,74,0.00,,,-99.99,,2013-01-15 01:52:00,
2013-01-14 19:01:00,-7.0,-13.0,-100.00,WSW,247,23.0,27.0,75,0.00,,,-99.99,,2013-01-15 02:01:00,
2013-01-14 19:11:00,-7.0,-13.0,-100.00,WSW,246,23.0,26.0,74,0.00,,,-99.99,,2013-01-15 02:11:00,
2013-01-14 19:22:00,-6.0,-12.0,-100.00,WSW,251,26.0,30.0,74,0.00,,,-99.99,,2013-01-15 02:22:00,
2013-01-14 19:32:00,-6.0,-12.0,-100.00,WSW,243,24.0,28.0,75,0.00,,,-99.99,,2013-01-15 02:32:00,
2013-01-14 19:42:00,-6.0,-12.0,-100.00,WSW,251,27.0,29.0,76,0.00,,,-99.99,,2013-01-15 02:42:00,
2013-01-14 19:52:00,-7.0,-12.0,-100.00,WSW,248,26.0,29.0,76,0.00,,,-99.99,,2013-01-15 02:52:00,
2013-01-14 20:02:00,-6.0,-12.0,-100.00,WSW,251,26.0,28.0,76,0.00,,,-99.99,,2013-01-15 03:02:00,
2013-01-14 20:11:00,-7.0,-12.0,-100.00,WSW,251,25.0,28.0,77,0.00,,,-99.99,,2013-01-15 03:11:00,
2013-01-14 20:22:00,-7.0,-12.0,-100.00,WSW,253,24.0,26.0,77,0.00,,,-99.99,,2013-01-15 03:22:00,
2013-01-14 20:32:00,-7.0,-12.0,-100.00,WSW,251,25.0,28.0,77,0.00,,,-99.99,,2013-01-15 03:32:00,
2013-01-14 20:42:00,-7.0,-13.0,-100.00,WSW,253,24.0,26.0,76,0.00,,,-99.99,,2013-01-15 03:42:00,
2013-01-14 20:52:00,-8.0,-13.0,-100.00,WSW,251,23.0,24.0,75,0.00,,,-99.99,,2013-01-15 03:52:00,
2013-01-14 21:02:00,-7.0,-13.0,-100.00,WSW,251,22.0,26.0,74,0.00,,,-99.99,,2013-01-15 04:02:00,
2013-01-14 21:11:00,-7.0,-13.0,-100.00,WSW,253,23.0,26.0,74,0.00,,,-99.99,,2013-01-15 04:11:00,
2013-01-14 21:22:00,-7.0,-13.0,-100.00,WSW,257,24.0,26.0,76,0.00,,,-99.99,,2013-01-15 04:22:00,
2013-01-14 21:32:00,-7.0,-12.0,-100.00,WSW,254,24.0,27.0,76,0.00,,,-99.99,,2013-01-15 04:32:00,
2013-01-14 21:42:00,-6.0,-12.0,-100.00,WSW,254,24.0,26.0,75,0.00,,,-99.99,,2013-01-15 04:42:00,
2013-01-14 21:52:00,-6.0,-12.0,-100.00,WSW,251,22.0,26.0,75,0.00,,,-99.99,,2013-01-15 04:52:00,
2013-01-14 22:03:00,-6.0,-12.0,-100.00,WSW,251,21.0,24.0,75,0.00,,,-99.99,,2013-01-15 05:03:00,
2013-01-14 22:12:00,-6.0,-12.0,-100.00,WSW,251,21.0,23.0,77,0.00,,,-99.99,,2013-01-15 05:12:00,
2013-01-14 22:22:00,-7.0,-12.0,-100.00,WSW,250,24.0,26.0,77,0.00,,,-99.99,,2013-01-15 05:22:00,
2013-01-14 22:32:00,-7.0,-12.0,-100.00,WSW,251,24.0,27.0,79,0.00,,,-99.99,,2013-01-15 05:32:00,
2013-01-14 22:42:00,-7.0,-11.0,-100.00,WSW,253,24.0,26.0,80,0.00,,,-99.99,,2013-01-15 05:42:00,
2013-01-14 22:52:00,-6.0,-11.0,-100.00,WSW,251,24.0,26.0,80,0.00,,,-99.99,,2013-01-15 05:52:00,
2013-01-14 23:02:00,-6.0,-11.0,-100.00,WSW,251,24.0,29.0,79,0.00,,,-99.99,,2013-01-15 06:02:00,
2013-01-14 23:11:00,-6.0,-11.0,-100.00,WSW,250,24.0,26.0,78,0.00,,,-99.99,,2013-01-15 06:11:00,
2013-01-14 23:22:00,-6.0,-11.0,-100.00,WSW,248,26.0,28.0,78,0.00,,,-99.99,,2013-01-15 06:22:00,
2013-01-14 23:32:00,-6.0,-11.0,-100.00,WSW,247,22.0,24.0,78,0.00,,,-99.99,,2013-01-15 06:32:00,
2013-01-14 23:42:00,-6.0,-11.0,-100.00,WSW,247,24.0,27.0,78,0.00,,,-99.99,,2013-01-15 06:42:00,
2013-01-14 23:52:00,-6.0,-11.0,-100.00,WSW,250,26.0,28.0,78,0.00,,,-99.99,,2013-01-15 06:52:00,